Weather History for Fort Myers, FL

Change the Weather History Date:

Saturday, February 2, 2013

  Actual Average Record
Temperature  
Mean Temperature 61 °F 65 °F  
Max Temperature 76 °F 76 °F 88 °F (1990)
Min Temperature 46 °F 55 °F 34 °F (1909)
Degree Days  
Heating Degree Days 4 3  
Month to date heating degree days 10 6  
Since 1 July heating degree days 82 207  
Cooling Degree Days 0 3  
Month to date cooling degree days 0 6  
Year to date cooling degree days 176 89  
Growing Degree Days 10 (Base 50)    
Moisture  
Dew Point 42 °F    
Average Humidity 53    
Maximum Humidity 76    
Minimum Humidity 31    
Precipitation  
Precipitation 0.00 in 0.08 in 2.75 in (1998)
Month to date precipitation 0.00 0.15  
Year to date precipitation 0.62 2.09  
Sea Level Pressure  
Sea Level Pressure 30.22 in    
Wind  
Wind Speed 6 mph (NE)    
Max Wind Speed 13 mph    
Max Gust Speed 17 mph    
Visibility 10 miles    
Events      
T = Trace of Precipitation, MM = Missing Value Source: NWS Daily Summary

Daily Weather History Graph

Daily Weather History Graph

Search for Another Location

Airport:

Trip Planner

Search our weather history database for the weather conditions in past years. The results will help you decide how hot, cold, wet, or windy it might be!

Date:

Astronomy

Feb. 02, 2013 Rise Set
Actual Time 7:11 AM EST 6:10 PM EST
Civil Twilight 6:47 AM EST 6:35 PM EST
Nautical Twilight 6:19 AM EST 7:02 PM EST
Astronomical Twilight 5:52 AM EST 7:30 PM EST
Moon No Moon Rise 11:04 AM EST (2/2)
Length of Visible Light 11h 47m
Length of Day
10h 59m
Waning Gibbous, 60% of the Moon is Illuminated
Feb 2
Waning Gibbous
Feb 3
Last Quarter
Feb 10
New
Feb 17
First Quarter
Feb 25
Full

Hourly Weather History & Observations

Time (EST) Temp. Dew Point Humidity Pressure Visibility Wind Dir Wind Speed Gust Speed Precip Events Conditions
12:53 AM 48.9 °F 34.0 °F 56% 30.27 in 10.0 mi Calm Calm - N/A   Clear
1:53 AM 48.0 °F 35.1 °F 61% 30.27 in 10.0 mi NNE 3.5 mph - N/A   Clear
2:53 AM 48.9 °F 37.0 °F 64% 30.26 in 10.0 mi NE 9.2 mph - N/A   Clear
4:53 AM 48.9 °F 39.0 °F 69% 30.26 in 10.0 mi NNE 9.2 mph - N/A   Clear
5:53 AM 46.9 °F 39.0 °F 74% 30.27 in 10.0 mi NE 5.8 mph - N/A   Clear
6:53 AM 46.9 °F 39.0 °F 74% 30.27 in 10.0 mi NE 4.6 mph - N/A   Clear
7:53 AM 50.0 °F 39.9 °F 68% 30.29 in 10.0 mi NE 6.9 mph - N/A   Clear
8:53 AM 55.9 °F 39.9 °F 55% 30.29 in 10.0 mi NE 8.1 mph - N/A   Clear
9:53 AM 62.1 °F 39.9 °F 44% 30.29 in 10.0 mi ENE 10.4 mph - N/A   Clear
10:53 AM 68.0 °F 39.0 °F 35% 30.27 in 10.0 mi NE 11.5 mph - N/A   Clear
11:53 AM 71.1 °F 41.0 °F 34% 30.24 in 10.0 mi ENE 10.4 mph - N/A   Clear
12:53 PM 72.0 °F 43.0 °F 35% 30.21 in 10.0 mi ENE 8.1 mph 17.3 mph N/A   Clear
1:53 PM 73.9 °F 44.1 °F 34% 30.18 in 10.0 mi East 6.9 mph - N/A   Clear
2:53 PM 75.0 °F 44.1 °F 33% 30.16 in 10.0 mi ESE 5.8 mph - N/A   Clear
3:53 PM 75.0 °F 43.0 °F 32% 30.14 in 10.0 mi ESE 6.9 mph - N/A   Clear
4:53 PM 73.9 °F 43.0 °F 33% 30.14 in 10.0 mi Calm Calm - N/A   Clear
5:53 PM 72.0 °F 44.1 °F 37% 30.14 in 10.0 mi NNW 5.8 mph - N/A   Clear
6:53 PM 66.0 °F 45.0 °F 47% 30.15 in 10.0 mi NW 6.9 mph - N/A   Clear
7:53 PM 63.0 °F 50.0 °F 63% 30.17 in 10.0 mi NNW 5.8 mph - N/A   Clear
8:53 PM 62.1 °F 48.9 °F 62% 30.18 in 10.0 mi NNW 4.6 mph - N/A   Clear
9:53 PM 59.0 °F 48.0 °F 67% 30.18 in 10.0 mi Calm Calm - N/A   Clear
10:53 PM 59.0 °F 46.9 °F 64% 30.17 in 10.0 mi North 4.6 mph - N/A   Clear
11:53 PM 57.0 °F 46.0 °F 67% 30.16 in 10.0 mi NNE 4.6 mph - N/A   Clear